{"data":{"norad_id":65021,"intl_designator":"2025-161G","name":"STARLINK-34778","alt_names":[],"object_type":"PAYLOAD","status":"ACTIVE","operator":null,"country":"US","launch_date":"2025-07-30","launch_site_code":"AFWTR","launch_vehicle":null,"mission":null,"orbit_class":"UNKNOWN","rcs_meters":null,"size_class":null,"mass_kg":null,"dimensions":null,"purposes":["comms"],"wikipedia_slug":null,"has_3d_model":false,"image_url":null,"decayed_at":null,"tle_current":{"epoch":"2026-05-25T03:46:56.845632Z","epoch_age_seconds":61770,"freshness":"FRESH","line1":"1 65021U 25161G   26145.15760238  .00032036  00000+0  10873-2 0  9993","line2":"2 65021  53.1599 299.2890 0001237  63.4571 296.6557 15.30252936 47025","mean_motion":15.30252936,"eccentricity":0.0001237,"inclination_deg":53.1599,"raan_deg":299.289,"arg_perigee_deg":63.4571,"mean_anomaly_deg":296.6557,"bstar":0.0010873,"rev_number":4702,"period_min":94.102090322668,"perigee_km":474.20927652166,"apogee_km":475.90475672137,"semimajor_km":6853.1940166215,"source":"CELESTRAK","updated_at":"2026-05-25T13:38:20.667927Z"}}}